Home   Weather   Freetown   Past weeks
Flag for Sierra Leone

Past Weather in Freetown, Sierra Leone — Yesterday and Last 2 Weeks

Now
82 °F

Passing clouds.


Feels Like: 86 °F
Forecast: N/A
Wind: 7 mph from Northwest

Location: Conakry / Gbessia

Current Time: Jan 22, 2019 at 9:26:04 pm

Latest Report: Jan 22, 2019 at 8:00 pm


Visibility: 3 mi

Pressure: 29.86 "Hg

Humidity: 66%

Dew Point: 70 °F

Location of FreetownLocation

Past Weather in Freetown — Graph

°F

Freetown Temperature Yesterday

Maximum temperature yesterday: 86 °F (at 1:00 pm)
Minimum temperature yesterday: 73 °F (at 8:00 am)
Average temperature yesterday: 81 °F

High & Low Weather Summary for the Past Weeks

 TemperatureHumidityPressure
High91 °F (Jan 16, 2:00 pm)100% (Jan 12, 5:00 am)29.98 "Hg (Jan 12, 5:00 am)
Low72 °F (Jan 19, 6:00 am)32% (Jan 20, 3:00 pm)29.77 "Hg (Jan 8, 3:00 pm)
Average81 °F73%29.87 "Hg
* Reported Jan 7 8:00 pm — Jan 22 8:00 pm, Freetown. Weather by CustomWeather, © 2019

Note: Actual official high and low records may vary slightly from our data, if they occured in-between our weather recording intervals... More about our weather records

Advertising

Freetown Weather History for the Previous 24 Hours

Scroll right to see more
 ConditionsComfort  
Time TempWeatherWind HumidityBarometerVisibility
8:00 pm
Tue, Jan 22
82 °FPassing clouds.7 mph66%29.86 "Hg3 mi
7:00 pm82 °FHaze.No wind70%29.83 "Hg4 mi
6:00 pm88 °FHaze.5 mph59%29.80 "Hg4 mi
4:00 pm88 °FHaze.12 mph59%29.80 "Hg3 mi
3:00 pm86 °FHaze.9 mph59%29.83 "Hg3 mi
2:00 pm88 °FHaze.9 mph59%29.86 "Hg3 mi
1:00 pm86 °FHaze.7 mph59%29.89 "Hg3 mi
12:00 pm84 °FHaze.7 mph66%29.89 "Hg3 mi
10:00 am75 °FFog.No wind78%29.92 "Hg2 mi
9:00 am72 °FFog.No wind94%29.92 "Hg2 mi
8:00 am72 °FFog.No wind94%29.89 "Hg2 mi
7:00 am75 °FFog.No wind89%29.89 "Hg2 mi
6:00 am75 °FFog.No wind89%29.86 "Hg1 mi
5:00 am73 °FFog.No wind94%29.86 "Hg1 mi
3:00 am77 °FFog.No wind89%29.89 "Hg1 mi
11:00 pm
Mon, Jan 21
81 °FFog.No wind84%29.95 "Hg1 mi
9:00 pm81 °FFog.No wind84%29.92 "Hg2 mi
Weather by CustomWeather, © 2019

See weather overview